Location: Cedar Brake
(32.2526°N, 97.8459°W)
Time: 08:07:26
(UTC+00:00)

NOSS 2-1 (D) - Pass Details

Date: 22 April 2026
Orbit: 373 x 1667 km, 63.3° (Epoch: 14 May)

Event Time Altitude Azimuth Distance (km) Brightness Sun altitude
Rises 03:04:48 0° 333° (NNW) 2,539 7.7 -23.8°
Reaches altitude 10° 03:06:40 10° 336° (NNW) 1,771 6.7 -24.2°
Enters shadow 03:10:11 64° 25° (NNE) 697 3.7 -24.8°
